Weather History for Brownsville, TX

Change the Weather History Date:

Friday, July 19, 2013

  Actual Average Record
Temperature  
Mean Temperature 84 °F 85 °F  
Max Temperature 92 °F 94 °F 100 °F (1918)
Min Temperature 76 °F 76 °F 70 °F (1901)
Degree Days  
Heating Degree Days 0 0  
Month to date heating degree days 0 0  
Since 1 June heating degree days 0 0  
Since 1 July heating degree days 0 0  
Cooling Degree Days 19 20  
Month to date cooling degree days 373 380  
Year to date cooling degree days 2118 2040  
Since 1 June cooling degree days 996 947  
Growing Degree Days 33 (Base 50)    
Moisture  
Dew Point 75 °F    
Average Humidity 78    
Maximum Humidity 100    
Minimum Humidity 56    
Precipitation  
Precipitation 0.02 in 0.05 in 1.50 in (1878)
Month to date precipitation 1.43 1.39  
Year to date precipitation 7.88 11.72  
Sea Level Pressure  
Sea Level Pressure 29.97 in    
Wind  
Wind Speed 7 mph (East)    
Max Wind Speed 17 mph    
Max Gust Speed 22 mph    
Visibility 10 miles    
Events Rain , Thunderstorm    
T = Trace of Precipitation, MM = Missing Value Source: NWS Daily Summary

Daily Weather History Graph

Daily Weather History Graph

Search for Another Location

Airport:

Trip Planner

Search our weather history database for the weather conditions in past years. The results will help you decide how hot, cold, wet, or windy it might be!

Date:

Astronomy

Jul. 19, 2013 Rise Set
Actual Time 6:49 AM CDT 8:22 PM CDT
Civil Twilight 6:24 AM CDT 8:47 PM CDT
Nautical Twilight 5:53 AM CDT 9:17 PM CDT
Astronomical Twilight 5:22 AM CDT 9:49 PM CDT
Moon 5:26 PM CDT (7/19) 3:30 AM CDT (7/19)
Length of Visible Light 14h 23m
Length of Day
13h 32m
Waxing Gibbous, 87% of the Moon is Illuminated
Jul 19
Waxing Gibbous
Jul 22
Full
Jul 29
Last Quarter
Aug 6
New
Aug 14
First Quarter

Hourly Weather History & Observations

Time (CDT) Temp. Heat Index Dew Point Humidity Pressure Visibility Wind Dir Wind Speed Gust Speed Precip Events Conditions
12:53 AM 78.1 °F - 75.9 °F 93% 30.02 in 10.0 mi ESE 4.6 mph - N/A   Clear
1:53 AM 78.1 °F - 75.9 °F 93% 30.01 in 10.0 mi Calm Calm - N/A   Clear
2:53 AM 78.1 °F - 75.0 °F 90% 29.99 in 10.0 mi ESE 4.6 mph - N/A   Clear
3:53 AM 77.0 °F - 75.0 °F 94% 29.97 in 10.0 mi Calm Calm - N/A   Clear
4:53 AM 78.1 °F - 75.9 °F 93% 29.97 in 9.0 mi ESE 5.8 mph 16.1 mph 0.02 in Rain Light Rain
5:04 AM 78.8 °F - 75.2 °F 89% 29.97 in 10.0 mi ESE 3.5 mph - 0.00 in   Scattered Clouds
5:19 AM 77.0 °F - 75.2 °F 94% 29.97 in 10.0 mi ENE 3.5 mph - 0.00 in   Mostly Cloudy
5:26 AM 77.0 °F - 75.2 °F 94% 29.96 in 10.0 mi ENE 3.5 mph - 0.00 in   Partly Cloudy
5:53 AM 77.0 °F - 75.0 °F 94% 29.97 in 10.0 mi Calm Calm - 0.00 in   Mostly Cloudy
6:53 AM 75.9 °F - 75.9 °F 100% 29.99 in 10.0 mi NNE 4.6 mph - N/A   Partly Cloudy
7:53 AM 77.0 °F - 77.0 °F 100% 29.99 in 10.0 mi ENE 4.6 mph - N/A   Clear
8:53 AM 80.1 °F 85.8 °F 77.0 °F 90% 30.01 in 10.0 mi Calm Calm - N/A   Clear
9:53 AM 84.9 °F 94.1 °F 75.9 °F 74% 30.01 in 10.0 mi NNE 3.5 mph - N/A   Clear
10:53 AM 87.1 °F 95.4 °F 73.9 °F 65% 30.00 in 10.0 mi Variable 3.5 mph - N/A   Scattered Clouds
11:53 AM 90.0 °F 100.2 °F 75.0 °F 61% 29.99 in 10.0 mi ESE 12.7 mph 16.1 mph N/A   Scattered Clouds
12:30 PM 87.8 °F 95.6 °F 73.4 °F 62% 30.00 in 10.0 mi East 9.2 mph - N/A Thunderstorm Thunderstorm
12:44 PM 87.8 °F 97.6 °F 75.2 °F 66% 29.99 in 10.0 mi ENE 5.8 mph - N/A   Mostly Cloudy
12:53 PM 86.0 °F 95.1 °F 75.0 °F 70% 29.99 in 10.0 mi NE 4.6 mph - N/A   Mostly Cloudy
1:53 PM 88.0 °F 95.6 °F 73.0 °F 61% 29.97 in 10.0 mi East 8.1 mph - N/A   Partly Cloudy
2:53 PM 89.1 °F 97.0 °F 73.0 °F 59% 29.95 in 10.0 mi East 12.7 mph - N/A   Partly Cloudy
3:53 PM 91.0 °F 99.3 °F 73.0 °F 55% 29.93 in 10.0 mi East 16.1 mph 20.7 mph N/A   Partly Cloudy
4:53 PM 90.0 °F 99.0 °F 73.9 °F 59% 29.92 in 10.0 mi East 12.7 mph - N/A   Clear
5:53 PM 89.1 °F 98.0 °F 73.9 °F 61% 29.91 in 10.0 mi East 13.8 mph - N/A   Partly Cloudy
6:53 PM 86.0 °F 93.0 °F 73.0 °F 65% 29.91 in 10.0 mi East 13.8 mph - N/A   Partly Cloudy
7:53 PM 84.0 °F 92.6 °F 75.9 °F 76% 29.92 in 10.0 mi East 12.7 mph - N/A   Partly Cloudy
8:53 PM 82.0 °F 88.6 °F 75.0 °F 79% 29.93 in 10.0 mi ESE 9.2 mph - N/A   Clear
9:53 PM 80.1 °F 85.1 °F 75.0 °F 85% 29.93 in 10.0 mi ESE 6.9 mph - N/A   Clear
10:53 PM 78.1 °F - 73.9 °F 87% 29.96 in 10.0 mi SE 4.6 mph - N/A   Clear
11:53 PM 79.0 °F - 75.0 °F 88% 29.97 in 10.0 mi ESE 3.5 mph - N/A   Clear